Weather History for Bluefield, WV

Change the Weather History Date:

Sunday, January 6, 2013

  Actual Average Record
Temperature  
Mean Temperature 36 °F 34 °F  
Max Temperature 39 °F 42 °F 65 °F (1998)
Min Temperature 33 °F 26 °F -4 °F (2014)
Degree Days  
Heating Degree Days 29 31  
Month to date heating degree days 197 186  
Since 1 July heating degree days 1957 1951  
Cooling Degree Days 0 0  
Month to date cooling degree days 0 0  
Year to date cooling degree days 0 0  
Moisture  
Dew Point 27 °F    
Average Humidity 73    
Maximum Humidity 82    
Minimum Humidity 64    
Precipitation  
Precipitation T in 0.10 in 0.81 in (2009)
Month to date precipitation 0.17 0.56  
Year to date precipitation 0.17 0.56  
Snow  
Snow T in - - ()
Month to date snowfall 0.3  
Since 1 July snowfall 17.2  
Snow Depth 0.00 in    
Sea Level Pressure  
Sea Level Pressure 30.12 in    
Wind  
Wind Speed 9 mph (West)    
Max Wind Speed 17 mph    
Max Gust Speed 26 mph    
Visibility 10 miles    
Events      
T = Trace of Precipitation, MM = Missing Value Source: NWS Daily Summary

Daily Weather History Graph

Daily Weather History Graph

Search for Another Location

Airport:

Trip Planner

Search our weather history database for the weather conditions in past years. The results will help you decide how hot, cold, wet, or windy it might be!

Date:

Astronomy

Jan. 06, 2013 Rise Set
Actual Time 7:39 AM EST 5:22 PM EST
Civil Twilight 7:10 AM EST 5:51 PM EST
Nautical Twilight 6:38 AM EST 6:23 PM EST
Astronomical Twilight 6:06 AM EST 6:55 PM EST
Moon 1:55 AM EST (1/6) 12:46 PM EST (1/6)
Length of Visible Light 10h 41m
Length of Day
9h 43m
Waning Crescent, 33% of the Moon is Illuminated
Jan 6
Waning Crescent
Jan 11
New
Jan 18
First Quarter
Jan 26
Full
Feb 3
Last Quarter

Hourly Weather History & Observations

Time (EST) Temp. Windchill Dew Point Humidity Pressure Visibility Wind Dir Wind Speed Gust Speed Precip Events Conditions
12:52 AM 34.0 °F 26.0 °F 28.0 °F 79% 30.19 in 9.0 mi WSW 10.4 mph - 0.00 in   Overcast
1:52 AM 34.0 °F 26.0 °F 27.0 °F 75% 30.17 in 10.0 mi WSW 10.4 mph - 0.00 in   Overcast
2:07 AM 33.8 °F 25.8 °F 26.6 °F 75% 30.13 in 10.0 mi WSW 10.4 mph - N/A   Overcast
2:52 AM 34.0 °F 28.0 °F 27.0 °F 75% 30.14 in 10.0 mi WSW 6.9 mph - N/A   Overcast
3:52 AM 35.1 °F 27.9 °F 27.0 °F 72% 30.13 in 10.0 mi West 9.2 mph - N/A   Overcast
4:00 AM 35.6 °F 29.2 °F 26.6 °F 70% 30.11 in 10.0 mi West 8.1 mph - N/A   Overcast
4:52 AM 35.1 °F 28.6 °F 26.1 °F 70% 30.12 in 10.0 mi West 8.1 mph - N/A   Overcast
5:52 AM 34.0 °F 28.8 °F 26.1 °F 73% 30.12 in 10.0 mi WSW 5.8 mph - N/A   Overcast
6:24 AM 33.8 °F 27.7 °F 26.6 °F 75% 30.10 in 10.0 mi WSW 6.9 mph - N/A   Overcast
6:52 AM 34.0 °F 29.8 °F 26.1 °F 73% 30.13 in 10.0 mi West 4.6 mph - N/A   Overcast
7:52 AM 34.0 °F 28.0 °F 27.0 °F 75% 30.12 in 10.0 mi West 6.9 mph - N/A   Overcast
8:52 AM 35.1 °F 30.1 °F 27.0 °F 72% 30.14 in 10.0 mi West 5.8 mph - N/A   Overcast
9:52 AM 36.0 °F 29.0 °F 27.0 °F 70% 30.14 in 10.0 mi West 9.2 mph 18.4 mph 0.01 in   Overcast
10:52 AM 37.0 °F 29.3 °F 27.0 °F 67% 30.14 in 10.0 mi West 11.5 mph 20.7 mph N/A   Overcast
11:52 AM 37.0 °F 30.4 °F 27.0 °F 67% 30.12 in 10.0 mi West 9.2 mph 23.0 mph N/A   Overcast
12:52 PM 37.0 °F 29.3 °F 27.0 °F 67% 30.08 in 10.0 mi WSW 11.5 mph - N/A   Overcast
1:52 PM 37.0 °F 28.9 °F 26.1 °F 65% 30.06 in 10.0 mi WSW 12.7 mph 20.7 mph N/A   Overcast
2:52 PM 37.0 °F 28.9 °F 27.0 °F 67% 30.06 in 10.0 mi West 12.7 mph 21.9 mph N/A   Overcast
3:52 PM 37.9 °F 30.5 °F 26.1 °F 62% 30.06 in 10.0 mi WSW 11.5 mph - N/A   Overcast
4:52 PM 37.9 °F 29.6 °F 26.1 °F 62% 30.07 in 10.0 mi West 13.8 mph 18.4 mph N/A   Overcast
5:23 PM 37.4 °F 30.3 °F 26.6 °F 65% 30.06 in 10.0 mi West 10.4 mph 19.6 mph N/A   Overcast
5:50 PM 37.4 °F 31.4 °F 26.6 °F 65% 30.07 in 10.0 mi West 8.1 mph - N/A   Overcast
5:52 PM 37.0 °F 31.0 °F 27.0 °F 67% 30.10 in 10.0 mi West 8.1 mph - N/A   Overcast
6:18 PM 37.4 °F 30.8 °F 26.6 °F 65% 30.08 in 10.0 mi West 9.2 mph - N/A   Overcast
6:52 PM 37.0 °F 33.3 °F 27.0 °F 67% 30.12 in 10.0 mi West 4.6 mph - N/A   Overcast
7:52 PM 36.0 °F 29.0 °F 28.0 °F 73% 30.13 in 10.0 mi West 9.2 mph - N/A   Overcast
8:52 PM 36.0 °F 30.3 °F 28.0 °F 73% 30.13 in 10.0 mi West 6.9 mph - N/A   Overcast
9:04 PM 35.6 °F 28.6 °F 28.4 °F 75% 30.10 in 10.0 mi West 9.2 mph - N/A   Overcast
9:18 PM 35.6 °F 29.2 °F 26.6 °F 70% 30.11 in 10.0 mi WNW 8.1 mph - N/A   Overcast
9:29 PM 35.6 °F 28.6 °F 26.6 °F 70% 30.11 in 10.0 mi WNW 9.2 mph - N/A   Overcast
9:52 PM 37.0 °F 29.8 °F 27.0 °F 67% 30.15 in 10.0 mi WNW 10.4 mph - N/A   Overcast
10:52 PM 36.0 °F 27.1 °F 27.0 °F 70% 30.18 in 10.0 mi WNW 13.8 mph 23.0 mph N/A   Overcast
11:52 PM 35.1 °F 27.4 °F 25.0 °F 67% 30.22 in 10.0 mi WNW 10.4 mph - N/A   Overcast